Simultaneous Nadir Overpasses (SNOs) Predictions

Prediction of SNOs between LANDSAT-8 and NOAA-19 Satellite Orbit:

Table of predicted SNOs for the next 14.0 days since TLE Epoch: 2/16/2018
Index Date (LANDSAT-8) Time (LANDSAT-8) Lat,Lon (LANDSAT-8) SZA (LANDSAT-8 ) Date (NOAA-19) Time (NOAA-19) Lat,Lon (NOAA-19) SZA (NOAA-19 ) Distance(km) Time Diff (sec)
1 02/18/2018 17:38:39 -77.19, 107.44 91.28 02/18/2018 17:38:43 -77.21, 107.42 91.26 2.02 4
2 02/20/2018 23:12:21 77.21,-155.93 87.95 02/20/2018 23:12:20 77.21,-155.90 87.95 0.67 1
3 02/23/2018 04:46:05 -77.20, -59.38 92.87 02/23/2018 04:46:02 -77.23, -59.33 92.85 2.65 3
4 02/25/2018 10:19:46 77.25, 37.38 86.37 02/25/2018 10:19:40 77.23, 37.30 86.34 3.18 6
5 02/27/2018 15:53:30 -77.25, 133.93 94.48 02/27/2018 15:53:21 -77.26, 133.84 94.47 2.20 9
6 02/27/2018 16:43:05 76.81, -60.08 85.02 02/27/2018 16:44:10 76.81, -56.88 85.15 81.29 65
7 03/01/2018 21:27:12 77.24,-129.53 84.68 03/01/2018 21:27:00 77.27,-129.55 84.70 2.82 12




NCC Satellite Simultaneous Nadir Overpasses (SNOs) Prediction Service
